User: anonymous   Login
Location: Unspecified
(0.0000°N, 0.0000°E)
Time: 10:19:58
(UTC+00:00)
Language:

HORYU 2 - Orbit

View from above orbital plane
View from above orbital plane
View from above satellite
View from above satellite

Ground track
Ground track

The orbit data is extracted from the following two-line orbital elements,

1 38340U 12025D   19081.90359725 +.00000176 +00000-0 +33713-4 0  9992
2 38340 098.3401 117.8109 0012383 049.0140 311.2137 14.75681709357806
Epoch (UTC): 22 March 2019 21:41:10
Eccentricity: 0.0012383
inclination: 98.3401°
perigee height: 634 km
apogee height: 651 km
right ascension of ascending node: 117.8109°
argument of perigee: 49.0140°
revolutions per day: 14.75681709
mean anomaly at epoch: 311.2137°
orbit number at epoch: 35780

The dashed part of the orbit path shows where the satellite is in the earth's shadow,  

DLR